Radiation Dose at Monitoring Post of Fukushima Daini Nuclear Power Station
Date,Time,MP-1(microSv/h),MP-2(microSv/h),MP-3(microSv/h),MP-4(microSv/h),MP-5(microSv/h),MP-6(microSv/h),MP-7(microSv/h),Wind Direction,Wind Velocity(m/s),Rain
2020/03/24,00:00,0.183,0.169,0.273,0.253,0.259,0.143,0.086,north,4.2,No
2020/03/24,00:10,0.184,0.168,0.273,0.253,0.260,0.142,0.086,north,4.6,No
2020/03/24,00:20,0.185,0.168,0.274,0.252,0.260,0.143,0.086,north-northwest,4.5,No
2020/03/24,00:30,0.185,0.169,0.275,0.253,0.259,0.142,0.087,north-northwest,4.4,No
2020/03/24,00:40,0.184,0.169,0.274,0.254,0.260,0.142,0.086,north-northwest,4.4,No
2020/03/24,00:50,0.183,0.169,0.274,0.252,0.260,0.143,0.086,northwest,4.8,No
2020/03/24,01:00,0.184,0.169,0.274,0.252,0.260,0.141,0.086,northwest,4.3,No
2020/03/24,01:10,0.184,0.168,0.273,0.254,0.259,0.142,0.087,northwest,4.6,No
2020/03/24,01:20,0.185,0.168,0.273,0.252,0.260,0.142,0.086,northwest,4.3,No
2020/03/24,01:30,0.183,0.168,0.274,0.253,0.260,0.142,0.086,northwest,4.8,No
2020/03/24,01:40,0.183,0.169,0.274,0.253,0.259,0.141,0.086,northwest,5.8,No
2020/03/24,01:50,0.185,0.169,0.275,0.253,0.259,0.141,0.086,northwest,5.5,No
2020/03/24,02:00,0.184,0.167,0.273,0.253,0.260,0.143,0.087,northwest,5.5,No
2020/03/24,02:10,0.183,0.169,0.274,0.253,0.261,0.142,0.086,west-northwest,6.2,Yes
2020/03/24,02:20,0.185,0.169,0.274,0.253,0.259,0.142,0.086,west,4.3,Yes
2020/03/24,02:30,0.184,0.169,0.274,0.253,0.260,0.142,0.087,west-northwest,4.5,No
2020/03/24,02:40,0.183,0.168,0.275,0.254,0.259,0.143,0.087,west-northwest,6.0,No
2020/03/24,02:50,0.184,0.168,0.274,0.253,0.260,0.142,0.086,west-northwest,4.3,No
2020/03/24,03:00,0.184,0.169,0.275,0.253,0.259,0.142,0.086,west,3.4,No
2020/03/24,03:10,0.183,0.169,0.276,0.253,0.261,0.143,0.086,west,2.3,No
2020/03/24,03:20,0.184,0.169,0.275,0.253,0.259,0.142,0.086,northwest,1.8,No
2020/03/24,03:30,0.185,0.168,0.276,0.252,0.259,0.142,0.086,west-northwest,3.6,No
2020/03/24,03:40,0.184,0.169,0.274,0.252,0.261,0.142,0.087,west-northwest,3.8,No
2020/03/24,03:50,0.184,0.169,0.274,0.252,0.260,0.141,0.086,west-northwest,3.4,No
2020/03/24,04:00,0.184,0.168,0.274,0.252,0.260,0.142,0.086,northwest,3.3,No
2020/03/24,04:10,0.185,0.170,0.274,0.253,0.259,0.142,0.087,west-northwest,3.3,No
2020/03/24,04:20,0.185,0.170,0.275,0.252,0.259,0.142,0.086,northwest,2.5,No
2020/03/24,04:30,0.184,0.169,0.274,0.253,0.260,0.142,0.087,northwest,2.7,No
2020/03/24,04:40,0.184,0.169,0.275,0.252,0.260,0.143,0.087,northwest,4.4,No
2020/03/24,04:50,0.185,0.169,0.275,0.253,0.260,0.142,0.086,northwest,4.0,No
2020/03/24,05:00,0.185,0.170,0.273,0.252,0.260,0.142,0.087,northwest,3.4,No
2020/03/24,05:10,0.183,0.168,0.274,0.254,0.260,0.142,0.086,northwest,4.0,No
2020/03/24,05:20,0.185,0.169,0.275,0.253,0.261,0.142,0.086,northwest,4.8,No
2020/03/24,05:30,0.184,0.169,0.275,0.254,0.260,0.142,0.087,northwest,5.1,No
2020/03/24,05:40,0.184,0.170,0.274,0.253,0.259,0.142,0.086,northwest,5.0,No
2020/03/24,05:50,0.184,0.169,0.274,0.253,0.260,0.142,0.086,northwest,4.7,No
2020/03/24,06:00,0.184,0.169,0.274,0.253,0.261,0.142,0.087,northwest,4.5,No
2020/03/24,06:10,0.184,0.169,0.274,0.254,0.260,0.142,0.087,northwest,4.2,No
2020/03/24,06:20,0.184,0.169,0.275,0.254,0.260,0.143,0.087,northwest,4.8,No
2020/03/24,06:30,0.185,0.169,0.275,0.254,0.259,0.143,0.087,northwest,5.9,No
2020/03/24,06:40,0.184,0.169,0.274,0.252,0.260,0.142,0.086,northwest,5.8,No
2020/03/24,06:50,0.184,0.169,0.274,0.253,0.259,0.141,0.086,northwest,6.1,No
2020/03/24,07:00,0.185,0.168,0.274,0.253,0.259,0.142,0.086,northwest,7.9,No
2020/03/24,07:10,0.183,0.170,0.275,0.253,0.259,0.143,0.085,northwest,6.1,No
2020/03/24,07:20,0.184,0.168,0.274,0.253,0.260,0.142,0.087,northwest,7.9,No
2020/03/24,07:30,0.184,0.169,0.273,0.251,0.259,0.142,0.085,northwest,8.6,No
2020/03/24,07:40,0.184,0.168,0.273,0.253,0.260,0.142,0.086,northwest,9.5,No
2020/03/24,07:50,0.185,0.169,0.273,0.251,0.259,0.142,0.086,west-northwest,8.4,No
2020/03/24,08:00,0.184,0.168,0.274,0.251,0.260,0.141,0.086,northwest,7.0,No
2020/03/24,08:10,0.184,0.167,0.273,0.251,0.260,0.141,0.086,north-northwest,6.6,No
2020/03/24,08:20,0.183,0.168,0.274,0.251,0.259,0.141,0.086,north-northwest,5.5,No
2020/03/24,08:30,0.183,0.168,0.275,0.252,0.260,0.141,0.086,north-northwest,6.8,No
2020/03/24,08:40,0.184,0.168,0.273,0.252,0.259,0.141,0.085,north-northwest,8.1,No
2020/03/24,08:50,0.183,0.167,0.273,0.251,0.259,0.141,0.085,north-northwest,7.4,No
2020/03/24,09:00,0.184,0.168,0.275,0.251,0.259,0.142,0.085,west-northwest,5.9,No
2020/03/24,09:10,0.182,0.167,0.273,0.250,0.260,0.142,0.086,northwest,12.6,No
2020/03/24,09:20,0.185,0.168,0.273,0.251,0.258,0.141,0.085,west-northwest,10.6,No
2020/03/24,09:30,0.183,0.169,0.274,0.252,0.260,0.141,0.085,northwest,8.6,No
2020/03/24,09:40,0.184,0.168,0.273,0.252,0.260,0.141,0.086,northwest,9.3,No
2020/03/24,09:50,0.183,0.167,0.273,0.252,0.259,0.141,0.085,northwest,11.2,No
2020/03/24,10:00,0.183,0.168,0.274,0.252,0.260,0.141,0.086,northwest,13.7,No
2020/03/24,10:10,0.182,0.168,0.276,0.251,0.258,0.140,0.085,northwest,8.1,No
2020/03/24,10:20,0.183,0.168,0.275,0.252,0.260,0.141,0.086,northwest,7.7,No
2020/03/24,10:30,0.181,0.168,0.273,0.253,0.260,0.142,0.086,northwest,11.7,No
2020/03/24,10:40,0.183,0.168,0.275,0.251,0.259,0.142,0.086,northwest,10.6,No
2020/03/24,10:50,0.183,0.168,0.275,0.253,0.259,0.141,0.086,northwest,7.0,No
2020/03/24,11:00,0.184,0.169,0.274,0.252,0.258,0.142,0.086,northwest,10.4,No
2020/03/24,11:10,0.184,0.169,0.274,0.253,0.261,0.141,0.086,northwest,13.1,No
2020/03/24,11:20,0.182,0.169,0.274,0.253,0.259,0.142,0.086,northwest,12.3,No
2020/03/24,11:30,0.184,0.168,0.276,0.252,0.260,0.140,0.086,northwest,10.1,No
2020/03/24,11:40,0.184,0.168,0.274,0.254,0.260,0.142,0.085,northwest,8.8,No
2020/03/24,11:50,0.184,0.170,0.276,0.252,0.260,0.141,0.086,northwest,10.1,No
2020/03/24,12:00,0.184,0.167,0.274,0.254,0.261,0.142,0.086,northwest,10.9,No
2020/03/24,12:10,0.184,0.168,0.276,0.251,0.259,0.141,0.086,northwest,7.6,No
2020/03/24,12:20,0.184,0.169,0.276,0.252,0.260,0.142,0.086,northwest,10.3,No
2020/03/24,12:30,0.183,0.169,0.275,0.252,0.260,0.141,0.087,north-northwest,9.0,No
2020/03/24,12:40,0.184,0.168,0.275,0.253,0.258,0.142,0.085,northwest,9.5,No
2020/03/24,12:50,0.183,0.168,0.274,0.252,0.259,0.140,0.086,northwest,11.5,No
2020/03/24,13:00,0.183,0.169,0.274,0.251,0.260,0.142,0.086,west-northwest,8.4,No
2020/03/24,13:10,0.184,0.168,0.275,0.253,0.260,0.141,0.086,north-northwest,10.6,No
2020/03/24,13:20,0.184,0.168,0.275,0.253,0.260,0.142,0.086,north-northwest,7.9,No
2020/03/24,13:30,0.185,0.169,0.274,0.253,0.260,0.142,0.086,northwest,9.0,No
2020/03/24,13:40,0.184,0.169,0.276,0.252,0.260,0.142,0.086,northwest,12.3,No
2020/03/24,13:50,0.184,0.169,0.276,0.253,0.259,0.142,0.087,northwest,8.1,No
2020/03/24,14:00,0.185,0.169,0.274,0.253,0.260,0.142,0.085,northwest,8.3,No
2020/03/24,14:10,0.183,0.168,0.275,0.254,0.258,0.141,0.085,northwest,7.3,No
2020/03/24,14:20,0.186,0.169,0.276,0.253,0.261,0.141,0.086,northwest,7.7,No
2020/03/24,14:30,0.183,0.168,0.276,0.253,0.260,0.142,0.086,north-northwest,7.1,No
2020/03/24,14:40,0.185,0.168,0.278,0.253,0.261,0.143,0.086,north-northwest,7.9,No
2020/03/24,14:50,0.184,0.169,0.276,0.253,0.260,0.142,0.086,north-northwest,9.2,No
2020/03/24,15:00,0.183,0.169,0.276,0.253,0.261,0.143,0.086,northwest,8.9,No
2020/03/24,15:10,0.185,0.169,0.277,0.254,0.259,0.141,0.086,northwest,7.8,No
2020/03/24,15:20,0.183,0.169,0.276,0.253,0.260,0.143,0.086,northwest,8.1,No
2020/03/24,15:30,0.185,0.169,0.274,0.256,0.261,0.142,0.086,north-northwest,6.2,No
2020/03/24,15:40,0.185,0.169,0.277,0.253,0.261,0.142,0.085,north-northwest,6.6,No
2020/03/24,15:50,0.184,0.168,0.277,0.255,0.263,0.142,0.086,north-northwest,8.9,No
2020/03/24,16:00,0.185,0.169,0.274,0.255,0.259,0.142,0.086,north-northwest,10.4,No
2020/03/24,16:10,0.185,0.169,0.274,0.253,0.260,0.142,0.086,northwest,8.6,No
2020/03/24,16:20,0.184,0.168,0.276,0.253,0.262,0.141,0.087,north-northwest,11.2,No
2020/03/24,16:30,0.186,0.169,0.277,0.253,0.260,0.143,0.086,north-northwest,10.3,No
2020/03/24,16:40,0.185,0.168,0.276,0.254,0.260,0.143,0.085,north-northwest,7.3,No
2020/03/24,16:50,0.184,0.170,0.276,0.254,0.262,0.144,0.086,north-northwest,6.1,No
2020/03/24,17:00,0.184,0.170,0.276,0.254,0.260,0.142,0.086,north-northwest,7.1,No
2020/03/24,17:10,0.185,0.170,0.277,0.254,0.261,0.143,0.087,north-northwest,9.0,No
2020/03/24,17:20,0.184,0.169,0.276,0.253,0.260,0.143,0.086,northwest,6.3,No
2020/03/24,17:30,0.184,0.169,0.276,0.254,0.261,0.143,0.086,west-northwest,7.3,No
2020/03/24,17:40,0.185,0.169,0.275,0.254,0.260,0.143,0.086,northwest,8.5,No
2020/03/24,17:50,0.184,0.169,0.277,0.254,0.260,0.142,0.086,northwest,7.9,No
2020/03/24,18:00,0.184,0.170,0.277,0.254,0.261,0.143,0.086,northwest,9.2,No
2020/03/24,18:10,0.185,0.169,0.277,0.253,0.259,0.142,0.086,northwest,7.3,No
2020/03/24,18:20,0.185,0.169,0.277,0.255,0.260,0.142,0.086,northwest,6.8,No
2020/03/24,18:30,0.185,0.168,0.276,0.254,0.261,0.142,0.086,north-northwest,6.7,No
2020/03/24,18:40,0.184,0.170,0.277,0.255,0.260,0.143,0.086,north-northwest,5.2,No
2020/03/24,18:50,0.184,0.169,0.276,0.254,0.260,0.142,0.086,northwest,8.2,No
2020/03/24,19:00,0.184,0.169,0.277,0.254,0.259,0.142,0.086,northwest,7.1,No
2020/03/24,19:10,0.185,0.168,0.276,0.254,0.260,0.142,0.085,northwest,7.5,No
2020/03/24,19:20,0.185,0.169,0.276,0.254,0.260,0.142,0.086,northwest,7.2,No
2020/03/24,19:30,0.184,0.169,0.275,0.253,0.259,0.142,0.086,northwest,7.5,No
2020/03/24,19:40,0.184,0.169,0.275,0.255,0.259,0.142,0.086,northwest,7.3,No
2020/03/24,19:50,0.184,0.169,0.276,0.254,0.260,0.142,0.086,northwest,6.1,No
2020/03/24,20:00,0.185,0.169,0.277,0.253,0.260,0.142,0.086,northwest,7.3,No
2020/03/24,20:10,0.185,0.170,0.276,0.254,0.259,0.142,0.086,northwest,6.8,No
2020/03/24,20:20,0.184,0.170,0.275,0.253,0.259,0.143,0.086,northwest,6.4,No
2020/03/24,20:30,0.186,0.169,0.276,0.254,0.261,0.142,0.087,northwest,5.1,No
2020/03/24,20:40,0.185,0.169,0.276,0.254,0.259,0.142,0.086,northwest,4.0,No
2020/03/24,20:50,0.184,0.170,0.276,0.253,0.259,0.143,0.086,northwest,4.6,No
2020/03/24,21:00,0.184,0.169,0.276,0.254,0.260,0.142,0.086,west-northwest,5.0,No
2020/03/24,21:10,0.185,0.168,0.276,0.254,0.260,0.142,0.087,west-northwest,3.4,No
2020/03/24,21:20,0.185,0.169,0.276,0.254,0.259,0.143,0.086,west-northwest,2.8,No
2020/03/24,21:30,0.185,0.169,0.276,0.253,0.260,0.143,0.086,northwest,2.5,No
2020/03/24,21:40,0.183,0.169,0.276,0.254,0.259,0.142,0.086,northwest,2.1,No
2020/03/24,21:50,0.184,0.170,0.274,0.253,0.260,0.142,0.086,west-northwest,2.6,No
2020/03/24,22:00,0.184,0.169,0.275,0.254,0.259,0.142,0.087,west,2.6,No
2020/03/24,22:10,0.184,0.169,0.277,0.255,0.260,0.142,0.086,west-northwest,2.3,No
2020/03/24,22:20,0.184,0.169,0.276,0.254,0.260,0.142,0.086,west-northwest,2.8,No
2020/03/24,22:30,0.184,0.168,0.276,0.254,0.259,0.142,0.087,west-northwest,2.5,No
2020/03/24,22:40,0.185,0.168,0.275,0.253,0.261,0.143,0.086,west,2.7,No
2020/03/24,22:50,0.185,0.169,0.276,0.253,0.260,0.142,0.086,west,3.3,No
2020/03/24,23:00,0.185,0.170,0.276,0.254,0.260,0.142,0.087,west,4.5,No
2020/03/24,23:10,0.184,0.170,0.276,0.254,0.259,0.141,0.086,west-northwest,4.7,No
2020/03/24,23:20,0.185,0.168,0.275,0.253,0.260,0.142,0.087,west-northwest,4.0,No
2020/03/24,23:30,0.184,0.169,0.276,0.254,0.260,0.142,0.087,west-northwest,3.7,No
2020/03/24,23:40,0.184,0.169,0.276,0.254,0.260,0.143,0.086,northwest,4.5,No
2020/03/24,23:50,0.185,0.169,0.276,0.253,0.260,0.142,0.087,northwest,3.8,No
